User: anonymous   Login
Location: Dakoming
(43.5975°N, 104.0727°W)
Time: 04:12:14
(UTC+00:00)
Language:

Tiangong - Orbit

View from above orbital plane
View from above orbital plane
View from above satellite
View from above satellite

Ground track
Ground track

The orbit data is extracted from the following two-line orbital elements,

1 48274U 21035A   22136.77165589  .00024868  00000-0  30569-3 0  9992
2 48274  41.4711  49.8949 0003565 353.4576  54.7466 15.59683419 59861
Epoch (UTC): 16 May 2022 18:31:11
Eccentricity: 0.0003565
inclination: 41.4711°
perigee height: 386 km
apogee height: 391 km
right ascension of ascending node: 49.8949°
argument of perigee: 353.4576°
revolutions per day: 15.59683419
mean anomaly at epoch: 54.7466°
orbit number at epoch: 5986

The dashed part of the orbit path shows where the satellite is in the earth's shadow,  

DLR